Home > Weather > Alert > Past weeks

Flag for Canada Weather for the Past 2 Weeks in Alert, Nunavut, Canada

Now
-10 °F

Extremely cold.


Feels Like: -40 °F
Forecast: -18 / -1 °F
Wind: 32 mph from West

Location: Kap Morris Jesup

Current Time: Feb 12, 2016 at 8:09:17 AM

Latest Report: Feb 12, 2016 at 7:00 AM


Visibility: N/A

Pressure: 30.06 "Hg

Humidity: 79%

Dew point: -15 °F

Location of AlertLocation

Historic Weather in Alert — Graph

°F

Alert Temperature Yesterday

Maximum temperature yesterday: -6 °F (at 3:00 PM)
Minimum temperature yesterday: -12 °F (at 11:00 PM)
Average temperature yesterday: -10 °F

High & Low Weather Summary for the Past Weeks

 TemperatureHumidityPressure
High7 °F (Jan 28, 8:00 AM)87% (Jan 28, 7:00 AM)30.44 "Hg (Jan 28, 7:00 AM)
Low-35 °F (Feb 6, 10:00 PM)70% (Feb 6, 9:00 PM)29.59 "Hg (Jan 28, 2:00 PM)
Average-18 °F77%30.08 "Hg
* Reported Jan 28 6:00 AM — Feb 12 6:00 AM, Alert, Weather by CustomWeather, © 2016

Note: Actual official high and low records may vary slightly from our data, if they occured in-between our weather recording intervals... More about our weather records

Advertising

Alert Weather History for the Previous 24 Hours

 ConditionsComfort  
Time TempWeatherWind HumidityBarometerVisibility
6:00 AM
Fri, Feb 12
-10 °FExtremely cold.29 mph79%30.04 "HgN/A
5:00 AM-10 °FExtremely cold.30 mph80%30.01 "HgN/A
4:00 AM-11 °FExtremely cold.31 mph79%30.00 "HgN/A
3:00 AM-11 °FExtremely cold.31 mph79%29.98 "HgN/A
2:00 AM-11 °FExtremely cold.35 mph79%29.97 "HgN/A
1:00 AM-11 °FExtremely cold.33 mph79%29.96 "HgN/A
12:00 AM-12 °FExtremely cold.39 mph79%29.97 "HgN/A
11:00 PM
Thu, Feb 11
-12 °FExtremely cold.36 mph79%29.98 "HgN/A
10:00 PM-12 °FExtremely cold.37 mph79%29.97 "HgN/A
3:00 PM-6 °FFrigid.35 mphN/A29.95 "HgN/A
2:00 PM-7 °FFrigid.37 mph81%29.95 "HgN/A
1:00 PM-8 °FFrigid.36 mph81%29.98 "HgN/A
12:00 PM-9 °FFrigid.38 mph80%30.00 "HgN/A
11:00 AM-11 °FExtremely cold.38 mph79%30.01 "HgN/A
10:00 AM-11 °FExtremely cold.38 mph80%30.03 "HgN/A
9:00 AM-10 °FExtremely cold.37 mph79%30.04 "HgN/A
8:00 AM-10 °FExtremely cold.39 mph79%30.06 "HgN/A
Weather by CustomWeather, © 2016

See weather overviewHow to use our weather pages